User: anonymous   Login
Location: Asheville, NC
(35.6000°N, 82.5500°W)
Time: 11:01:24
(UTC-04:00)
Language:

Envisat - Orbit

View from above orbital plane
View from above orbital plane
View from above satellite
View from above satellite

Ground track
Ground track

The orbit data is extracted from the following two-line orbital elements,

1 27386U 02009A   17296.14660728  .00000006  00000-0  15837-4 0  9990
2 27386  98.2177 335.9883 0001248  87.8438 272.2905 14.37906177819464
Epoch (UTC): 23 October 2017 03:31:06
Eccentricity: 0.0001248
inclination: 98.2177°
perigee height: 764 km
apogee height: 766 km
right ascension of ascending node: 335.9883°
argument of perigee: 87.8438°
revolutions per day: 14.37906177
mean anomaly at epoch: 272.2905°
orbit number at epoch: 81946

The dashed part of the orbit path shows where the satellite is in the earth's shadow,  

DLR